Simultaneous Nadir Overpasses (SNOs) Predictions

Prediction of SNOs near US between AQUA and NPP Satellite Orbit:

Table of predicted SNOs near US for the next 10.0 days since TLE Epoch: 1/4/2014
Index Date (AQUA) Time (AQUA) AQUA Lat,Lon Date (NPP) Time (NPP) NPP Lat,Lon Distance(km) Time Diff (sec)
1 01/05/2014 19:06:54 50.00, -92.65 01/05/2014 19:03:46 49.65, -94.51 139.14 188
2 01/05/2014 20:45:47 50.00,-117.37 01/05/2014 20:45:15 49.59,-119.86 184.44 32
3 01/08/2014 08:34:12 24.85,-100.79 01/08/2014 08:27:12 24.84,-100.87 7.81 420
4 01/08/2014 10:10:34 33.93,-123.15 01/08/2014 10:06:05 34.02,-123.72 53.08 269
5 01/11/2014 07:19:09 49.94, -76.00 01/11/2014 07:22:51 50.36, -78.16 161.05 222
6 01/11/2014 08:58:02 49.93,-100.72 01/11/2014 09:04:19 50.48,-103.48 205.56 377
7 01/13/2014 18:17:13 49.96, -80.20 01/13/2014 18:13:10 49.69, -81.84 121.02 243
8 01/13/2014 19:56:06 49.97,-104.93 01/13/2014 19:54:38 49.57,-107.16 166.29 88




NCC Satellite Simultaneous Nadir Overpasses (SNOs) Prediction Service
